CAPE
0 0 0 0 0 0 0 0 19 9 8 5 8 6 0 0 0 1 3 2 4 4 3 3 3 2 2 2 3 6 2 2 4 1 1 0 0 0 0 0 0 0 0 0
0 0 0 0 0 0 0 26 18 46 17 5 5 2 1 2 3 2 3 3 3 4 4 4 4 3 3 3 4 6 8 3 11 1 0 1 0 0 0 0 0 0 0 0
0 0 0 0 0 0 20 18 14 5 24 3 4 5 5 5 3 5 8 6 6 6 5 5 4 3 3 3 2 5 4 10 9 6 2 1 1 0 0 1 0 1 1 1
0 2 1 3 38 0 10 16 6 8 2 1 3 5 4 4 3 4 6 7 7 5 3 2 2 2 2 3 1 3 0 1 2 4 1 1 0 0 1 1 1 1 1 1
12 5 0 2 26 14 17 13 1 1 3 2 2 0 3 7 4 5 3 3 3 3 3 2 2 2 2 2 1 1 2 0 0 0 1 1 1 1 0 1 1 1 1 1
11 15 0 4 1 0 4 8 1 0 0 4 3 1 1 5 5 5 4 3 3 1 0 0 1 1 0 1 1 1 1 2 0 2 0 0 1 2 2 2 2 1 1 1
4 16 10 2 1 0 0 6 1 1 2 0 0 2 4 7 6 6 3 3 1 1 3 1 0 1 0 0 0 0 1 1 0 0 1 1 1 1 1 1 1 1 1 1
5 12 11 2 0 4 13 2 1 2 4 4 0 0 0 1 1 3 2 2 0 0 0 0 1 0 0 0 1 1 0 0 0 0 0 0 0 2 1 0 0 0 0 0
12 3 7 7 10 10 2 2 5 3 2 0 1 0 0 2 5 3 0 0 0 0 0 0 1 1 0 1 1 0 0 0 0 0 0 0 0 0 0 0 0 0 0 0
0 11 10 5 4 3 2 3 5 4 1 0 0 0 0 0 2 3 1 0 0 0 0 0 1 1 4 6 2 0 0 0 0 0 0 0 0 0 0 0 0 0 0 0
8 8 3 6 7 4 3 3 2 1 1 0 0 0 0 1 1 2 2 2 1 0 1 1 1 0 1 2 6 2 0 0 0 1 0 0 0 0 1 0 0 0 0 0
1 6 0 6 4 9 5 3 2 0 0 0 0 0 0 0 0 0 1 0 0 1 0 0 0 0 0 0 0 0 6 1 0 0 0 0 0 0 8 7 5 3 1 0
1 4 2 5 9 2 2 3 1 0 0 0 0 0 0 1 0 1 0 0 0 0 0 0 0 0 0 0 0 0 0 0 0 0 0 0 0 0 0 0 3 3 4 4
9 0 3 1 5 4 1 3 10 8 5 2 0 0 0 0 0 0 0 0 0 0 0 0 0 0 0 0 0 0 0 0 0 0 0 0 0 0 0 0 0 0 0 0
1 0 1 3 5 7 1 0 0 1 1 0 0 0 0 0 0 0 0 0 0 0 0 0 0 0 0 0 0 0 0 0 0 0 0 0 0 0 0 0 0 0 0 0
4 3 0 0 1 1 0 0 0 0 0 0 0 0 0 0 0 0 0 0 0 0 0 0 0 0 0 0 0 0 0 0 0 0 0 0 0 0 0 0 0 0 0 0
1 4 1 1 1 0 0 0 0 0 0 0 0 0 0 0 0 0 0 0 0 0 0 0 0 0 0 0 0 0 0 0 0 0 0 0 0 0 0 0 0 0 0 0
0 0 0 0 0 0 0 0 0 0 0 0 0 0 0 0 0 0 0 0 0 0 0 0 0 0 0 0 0 0 0 0 0 0 0 0 0 0 0 0 0 0 0 0
0 0 0 0 0 0 0 0 0 0 0 0 0 0 0 0 0 0 0 0 0 0 0 0 0 0 0 0 0 0 0 0 0 0 0 0 0 0 0 0 0 0 0 0
0 0 0 0 0 0 0 0 0 0 0 0 0 0 0 0 0 0 0 0 0 0 0 0 0 0 0 0 0 0 0 0 0 0 0 0 0 0 0 0 0 0 0 0
0 0 0 0 0 0 0 0 0 0 0 0 0 0 0 0 0 0 0 0 0 0 0 0 0 0 0 0 0 0 0 0 0 0 0 0 0 0 0 0 0 0 0 0
0 0 0 0 0 0 0 0 0 0 0 0 0 0 0 0 0 0 0 0 0 0 0 0 0 0 0 0 0 0 0 0 0 0 0 0 0 0 0 0 0 0 0 0
0 0 0 0 0 0 0 0 0 0 0 0 0 0 0 0 0 0 0 0 0 0 0 0 0 0 0 0 0 0 0 0 0 0 0 0 0 0 0 0 0 0 0 0
0 0 0 0 0 0 0 0 0 0 0 0 0 0 0 0 0 0 0 0 0 0 0 0 0 0 0 0 0 0 0 0 0 0 0 0 0 0 0 0 0 0 0 0
0 0 0 0 0 0 0 0 0 0 0 0 0 0 0 0 0 0 0 0 0 0 0 0 0 0 0 0 0 0 0 0 0 0 0 0 0 0 0 0 0 0 0 0
0 0 0 0 0 0 0 0 0 0 0 0 0 0 0 0 0 0 0 0 0 0 0 0 0 0 0 0 0 0 0 0 0 0 0 0 0 0 0 0 0 0 0 0
0 0 0 0 0 0 0 0 0 0 0 0 0 0 0 0 0 0 0 0 0 0 0 0 0 0 0 0 0 0 0 0 0 0 0 0 0 0 0 0 0 0 0 0
CIN
-0 -0 -0 -0 -0 -0 -0 -0 -0 -0 -0 -0 -0 -0 -0 -0 -0 -0 -0 -0 -0 -0 -0 -0 -0 -0 -0 -0 -0 -0 -0 -0 -0 -0 -0 -0 -0 -0 -0 -0 -0 -0 -0 -0
-0 -0 -0 -0 -0 -0 -0 -0 -0 -0 -0 -0 -0 -0 -0 -0 -0 -0 -0 -0 -0 -0 -0 -0 -0 -0 -0 -0 -0 -0 -0 -0 -0 -0 -0 -0 -0 -0 -0 -0 -0 -0 -0 -0
-0 -0 -0 -0 -0 -0 -1 -0 -0 -0 -0 -0 -0 -0 -0 -0 -0 -0 -0 -0 -0 -0 -0 -0 -0 -0 -0 -0 -0 -0 -0 -0 -0 -0 -0 -0 -0 -0 -0 -0 -0 -0 -0 -0
-0 -0 -1 -0 -6 -0 -0 -0 -0 -0 -0 -0 -0 -0 -0 -0 -0 -0 -0 -0 -0 -0 -0 -0 -0 -0 -0 -0 -0 -0 -0 -0 -0 -0 -0 -0 -0 -0 -0 -0 -0 -0 -0 -0
-0 -1 -0 -0 -0 -0 -0 -0 -0 -0 -0 -0 -0 -0 -0 -0 -0 -0 -0 -0 -0 -0 -0 -0 -0 -0 -0 -0 -0 -0 -0 -0 -0 -0 -0 -0 -0 -0 -0 -0 -0 -0 -0 -0
-0 -0 -0 -0 -0 -0 -0 -0 -0 -0 -0 -0 -0 -0 -0 -0 -0 -0 -0 -0 -0 -0 -0 -0 -0 -0 -0 -0 -0 -0 -0 -0 -0 -0 -0 -0 -0 -0 -0 -0 -0 -0 -0 -0
-0 -0 -0 -0 -0 -0 -0 -0 -0 -0 -0 -0 -0 -0 -0 -0 -0 -0 -0 -0 -0 -0 -0 -0 -0 -0 -0 -0 -0 -0 -0 -0 -0 -0 -0 -0 -0 -0 -0 -0 -0 -0 -0 -0
-0 -0 -0 -0 -0 -0 -0 -0 -0 -0 -0 -0 -0 -0 -0 -0 -0 -0 -0 -0 -0 -0 -0 -0 -0 -0 -0 -0 -0 -0 -0 -0 -0 -0 -0 -0 -0 -0 -0 -0 -0 -0 -0 -0
-0 -0 -0 -0 -0 -0 -0 -0 -0 -0 -0 -0 -0 -0 -0 -0 -0 -0 -0 -0 -0 -0 -0 -0 -0 -0 -0 -0 -0 -0 -0 -0 -0 -0 -0 -0 -0 -0 -0 -0 -0 -0 -0 -0
-0 -0 -0 -0 -0 -0 -0 -0 -0 -0 -0 -0 -0 -0 -0 -0 -0 -0 -0 -0 -0 -0 -0 -0 -0 -0 -0 -0 -0 -0 -0 -0 -0 -0 -0 -0 -0 -0 -0 -0 -0 -0 -0 -0
-0 -0 -0 -0 -0 -0 -0 -0 -0 -0 -0 -0 -0 -0 -0 -0 -0 -0 -0 -0 -0 -0 -0 -0 -0 -0 -0 -0 -0 -0 -0 -0 -0 -0 -0 -0 -0 -0 -0 -0 -0 -0 -0 -0
-0 -0 -0 -0 -0 -0 -0 -0 -0 -0 -0 -0 -0 -0 -0 -0 -0 -0 -0 -0 -0 -0 -0 -0 -0 -0 -0 -0 -0 -0 -0 -0 -0 -0 -0 -0 -0 -0 -0 -0 -0 -0 -0 -0
-0 -0 -0 -0 -0 -0 -0 -0 -0 -0 -0 -0 -0 -0 -0 -0 -0 -0 -0 -0 -0 -0 -0 -0 -0 -0 -0 -0 -0 -0 -0 -0 -0 -0 -0 -0 -0 -0 -0 -0 -0 -0 -0 -0
-0 -0 -0 -0 -0 -0 -0 -0 -0 -0 -0 -0 -0 -0 -0 -0 -0 -0 -0 -0 -0 -0 -0 -0 -0 -0 -0 -0 -0 -0 -0 -0 -0 -0 -0 -0 -0 -0 -0 -0 -0 -0 -0 -0
-0 -0 -0 -0 -0 -0 -0 -0 -0 -0 -0 -0 -0 -0 -0 -0 -0 -0 -0 -0 -0 -0 -0 -0 -0 -0 -0 -0 -0 -0 -0 -0 -0 -0 -0 -0 -0 -0 -0 -0 -0 -0 -0 -0
-0 -0 -0 -0 -0 -0 -0 -0 -0 -0 -0 -0 -0 -0 -0 -0 -0 -0 -0 -0 -0 -0 -0 -0 -0 -0 -0 -0 -0 -0 -0 -0 -0 -0 -0 -0 -0 -0 -0 -0 -0 -0 -0 -0
-0 -0 -0 -0 -0 -0 -0 -0 -0 -0 -0 -0 -0 -0 -0 -0 -0 -0 -0 -0 -0 -0 -0 -0 -0 -0 -0 -0 -0 -0 -0 -0 -0 -0 -0 -0 -0 -0 -0 -0 -0 -0 -0 -0
-0 -0 -0 -0 -0 -0 -0 -0 -0 -0 -0 -0 -0 -0 -0 -0 -0 -0 -0 -0 -0 -0 -0 -0 -0 -0 -0 -0 -0 -0 -0 -0 -0 -0 -0 -0 -0 -0 -0 -0 -0 -0 -0 -0
-0 -0 -0 -0 -0 -0 -0 -0 -0 -0 -0 -0 -0 -0 -0 -0 -0 -0 -0 -0 -0 -0 -0 -0 -0 -0 -0 -0 -0 -0 -0 -0 -0 -0 -0 -0 -0 -0 -0 -0 -0 -0 -0 -0
-0 -0 -0 -0 -0 -0 -0 -0 -0 -0 -0 -0 -0 -0 -0 -0 -0 -0 -0 -0 -0 -0 -0 -0 -0 -0 -0 -0 -0 -0 -0 -0 -0 -0 -0 -0 -0 -0 -0 -0 -0 -0 -0 -0
-0 -0 -0 -0 -0 -0 -0 -0 -0 -0 -0 -0 -0 -0 -0 -0 -0 -0 -0 -0 -0 -0 -0 -0 -0 -0 -0 -0 -0 -0 -0 -0 -0 -0 -0 -0 -0 -0 -0 -0 -0 -0 -0 -0
-0 -0 -0 -0 -0 -0 -0 -0 -0 -0 -0 -0 -0 -0 -0 -0 -0 -0 -0 -0 -0 -0 -0 -0 -0 -0 -0 -0 -0 -0 -0 -0 -0 -0 -0 -0 -0 -0 -0 -0 -0 -0 -0 -0
-0 -0 -0 -0 -0 -0 -0 -0 -0 -0 -0 -0 -0 -0 -0 -0 -0 -0 -0 -0 -0 -0 -0 -0 -0 -0 -0 -0 -0 -0 -0 -0 -0 -0 -0 -0 -0 -0 -0 -0 -0 -0 -0 -0
-0 -0 -0 -0 -0 -0 -0 -0 -0 -0 -0 -0 -0 -0 -0 -0 -0 -0 -0 -0 -0 -0 -0 -0 -0 -0 -0 -0 -0 -0 -0 -0 -0 -0 -0 -0 -0 -0 -0 -0 -0 -0 -0 -0
-0 -0 -0 -0 -0 -0 -0 -0 -0 -0 -0 -0 -0 -0 -0 -0 -0 -0 -0 -0 -0 -0 -0 -0 -0 -0 -0 -0 -0 -0 -0 -0 -0 -0 -0 -0 -0 -0 -0 -0 -0 -0 -0 -0
-0 -0 -0 -0 -0 -0 -0 -0 -0 -0 -0 -0 -0 -0 -0 -0 -0 -0 -0 -0 -0 -0 -0 -0 -0 -0 -0 -0 -0 -0 -0 -0 -0 -0 -0 -0 -0 -0 -0 -0 -0 -0 -0 -0
-0 -0 -0 -0 -0 -0 -0 -0 -0 -0 -0 -0 -0 -0 -0 -0 -0 -0 -0 -0 -0 -0 -0 -0 -0 -0 -0 -0 -0 -0 -0 -0 -0 -0 -0 -0 -0 -0 -0 -0 -0 -0 -0 -0
Wind_Speed
7 10 14 17 18 18 15 13 9 9 3 6 5 8 11 10 11 13 15 17 16 16 15 15 16 15 14 14 14 14 11 11 7 9 9 10 11 10 9 10 10 9 8 8
14 11 13 15 16 16 15 13 13 9 10 10 9 9 12 12 12 13 15 15 15 16 16 15 16 15 14 14 14 14 13 13 10 12 11 10 11 11 10 10 11 11 10 9
11 7 14 15 14 15 7 7 5 3 5 10 9 11 10 9 11 12 12 13 14 14 14 14 14 14 14 13 12 13 14 14 13 13 13 12 11 10 13 12 11 12 11 11
8 9 7 9 12 20 16 11 11 9 7 10 10 11 9 10 10 11 11 12 13 11 12 13 13 14 13 13 13 13 13 13 14 14 15 13 14 13 12 11 12 10 11 12
4 4 12 6 5 4 5 8 9 6 6 10 12 13 11 9 11 10 8 8 9 10 10 12 14 13 13 15 14 14 14 13 12 14 17 14 18 14 11 12 12 13 11 13
3 5 5 4 17 15 8 6 9 8 6 4 9 2 3 7 8 10 10 9 9 10 10 13 13 12 15 15 16 16 15 12 13 13 13 16 16 13 12 13 12 11 14 13
10 4 5 14 22 13 3 3 8 10 12 11 6 7 6 5 8 8 9 10 10 12 12 13 12 12 15 14 15 12 13 13 15 15 13 13 13 12 13 13 13 13 14 13
6 4 3 20 7 7 6 8 9 11 10 13 10 9 6 7 8 9 10 11 11 11 13 13 13 12 13 14 11 11 10 14 14 15 11 11 13 12 12 12 13 12 11 11
5 4 4 8 11 12 10 10 9 10 9 9 8 5 7 7 8 10 10 9 10 11 12 13 11 11 13 11 10 10 13 13 12 14 13 12 12 11 9 10 9 9 8 8
4 5 10 9 10 12 11 11 10 10 9 7 9 8 7 7 7 8 9 9 9 11 13 13 12 13 12 10 10 11 12 12 12 13 13 12 10 9 9 8 8 8 7 7
7 8 9 10 9 9 10 11 11 12 9 8 9 8 7 8 9 9 9 9 10 11 11 12 11 12 12 10 8 10 10 10 10 10 11 11 11 9 9 10 9 7 6 6
2 5 5 6 8 9 9 9 8 10 10 8 8 9 9 8 7 8 10 9 10 11 10 11 11 12 11 10 9 8 7 6 6 6 6 7 8 9 22 19 19 19 17 11
3 9 11 10 9 8 9 10 10 10 8 10 7 7 11 11 10 13 10 10 9 9 9 10 10 11 11 9 8 8 7 6 5 5 5 5 6 6 7 11 20 20 19 18
4 7 4 2 6 9 11 11 12 10 10 11 10 9 10 10 11 11 9 8 9 9 10 9 10 10 10 9 7 6 6 8 5 4 4 4 3 5 5 5 6 5 13 13
8 7 8 8 9 8 10 10 12 11 10 10 8 9 9 10 10 8 7 8 9 10 10 9 9 10 9 7 6 6 5 4 3 4 4 5 5 5 5 5 5 4 4 8
6 9 8 10 9 9 9 9 10 8 8 7 7 8 9 9 9 9 9 9 8 8 7 6 8 7 7 6 6 5 5 7 6 3 3 4 4 4 4 4 4 3 4 2
7 7 7 8 7 6 8 7 8 8 8 8 7 8 9 9 9 8 6 5 6 5 4 5 4 6 6 6 5 3 3 4 5 4 4 3 3 4 4 4 3 4 4 2
7 10 7 8 9 10 9 9 9 9 8 7 6 6 7 6 6 3 2 3 5 7 7 6 3 5 7 8 6 4 3 3 4 4 3 4 4 3 3 3 3 4 2 3
10 10 9 9 8 9 8 8 6 7 6 5 6 6 5 4 3 0 2 4 5 4 5 5 8 6 7 8 6 4 4 4 4 4 3 4 4 3 3 2 2 2 2 3
10 9 10 9 8 7 7 5 6 6 3 5 6 6 5 3 2 4 3 3 1 2 3 4 5 5 6 7 7 4 4 4 3 3 3 3 2 2 2 3 3 3 3 2
6 6 7 7 6 6 5 4 5 5 3 4 6 3 3 1 2 2 3 2 4 3 1 3 4 3 3 4 4 3 4 3 4 3 3 2 3 3 3 2 2 2 2 1
3 5 6 6 6 4 3 3 5 4 4 4 3 3 3 1 1 1 3 3 1 1 1 1 1 3 3 5 3 3 2 3 2 2 2 2 2 2 2 2 2 1 1 2
5 4 5 6 5 5 3 3 3 4 4 3 3 3 3 2 3 3 1 2 1 3 1 1 3 3 4 2 3 2 2 2 1 1 2 2 2 2 2 2 2 2 2 3
4 5 5 4 5 4 4 4 4 4 4 4 5 5 3 3 2 1 2 3 3 3 3 4 4 4 2 2 2 1 1 1 2 2 2 2 2 2 2 3 3 3 3 3
5 5 5 6 6 4 6 6 5 4 5 5 4 4 6 4 4 3 3 3 5 4 3 6 6 6 2 2 3 3 4 3 4 3 3 3 3 3 3 3 4 4 3 3
7 5 5 8 5 3 2 3 2 2 2 2 2 2 3 2 2 2 3 4 5 5 4 4 4 5 4 4 5 5 4 4 4 4 4 4 4 4 4 4 3 4 4 4
3 3 3 3 3 3 3 3 3 2 2 2 1 3 2 1 3 3 3 3 4 4 4 5 5 6 6 7 6 6 5 5 5 4 4 4 3 4 4 4 4 4 3 3
Wind_Direction
255 286 280 272 276 273 258 265 253 281 132 85 32 39 49 23 24 18 16 17 14 6 4 3 5 2 0 5 3 357 11 55 56 93 92 92 83 76 76 81 77 71 84 66
291 291 284 293 275 265 256 258 261 244 110 110 70 43 38 25 19 22 19 15 16 10 5 8 6 3 360 4 7 12 21 39 38 53 61 68 80 80 73 68 68 77 65 62
278 305 318 291 245 232 106 18 228 70 72 114 90 60 29 27 31 26 16 15 20 13 8 7 6 8 8 3 12 27 28 32 39 48 55 54 58 78 77 69 69 65 64 64
280 296 247 320 64 99 95 58 52 84 76 91 106 93 62 36 42 33 18 16 16 13 9 16 12 17 18 17 26 29 34 38 43 51 56 51 59 42 62 73 73 72 66 64
233 252 292 271 31 329 76 75 41 55 51 140 138 119 60 46 48 44 24 15 14 16 13 18 22 18 29 27 30 32 35 37 46 56 61 50 60 46 44 61 63 67 67 69
217 272 312 48 332 321 204 82 33 43 29 125 181 88 41 36 40 47 38 24 20 24 35 29 23 29 40 29 27 28 24 34 52 51 62 76 68 58 53 57 58 58 63 63
222 246 285 359 320 306 111 62 65 58 46 53 78 65 96 62 62 49 38 30 25 32 41 34 22 35 39 33 29 20 24 33 40 49 46 60 70 72 77 64 63 57 55 55
183 174 278 351 3 54 89 88 94 85 84 83 77 77 73 71 60 56 48 35 29 40 38 27 31 39 42 38 21 26 34 42 38 41 41 43 54 63 60 65 75 65 59 54
34 88 53 16 47 43 73 86 82 88 86 93 95 81 78 78 67 66 54 42 37 41 41 34 30 50 53 42 33 37 43 43 39 46 44 41 47 47 57 61 61 58 68 60
114 69 73 69 62 52 58 72 77 86 104 96 89 69 69 70 68 65 56 47 40 42 40 37 29 31 39 51 44 48 50 46 43 51 50 45 47 47 48 46 59 62 50 59
89 110 111 61 66 79 72 70 80 72 70 81 92 79 79 75 70 65 63 53 47 47 43 37 32 33 29 29 45 60 56 54 50 49 50 58 56 51 60 54 58 65 53 53
61 350 90 79 70 75 89 90 88 96 83 66 84 86 84 79 73 72 65 55 51 48 42 33 32 28 18 20 32 48 68 68 65 66 64 63 66 69 65 73 77 74 66 61
96 70 81 85 89 96 98 94 92 90 87 95 83 79 76 73 65 67 62 57 53 50 43 37 33 27 9 7 28 35 51 48 66 82 65 65 63 67 75 55 67 67 67 71
136 125 104 35 107 94 91 92 95 102 85 82 87 83 82 80 73 66 58 57 56 53 45 39 36 21 358 359 27 31 43 42 47 53 83 99 89 84 77 70 61 35 31 58
66 74 108 128 117 107 100 98 88 84 85 80 78 87 82 83 71 57 60 63 62 58 44 37 29 10 351 349 26 29 34 39 42 49 54 72 80 75 70 63 59 47 34 37
104 96 93 84 94 96 99 99 99 96 94 89 87 84 87 83 77 66 57 55 66 49 29 23 30 345 348 7 19 34 33 47 47 45 51 81 90 93 84 77 73 57 51 23
145 138 123 118 116 111 110 107 103 103 103 108 105 101 93 92 85 77 62 51 58 48 21 27 338 344 0 11 26 17 48 46 42 45 45 62 81 93 96 94 85 63 54 40
75 92 98 110 115 111 102 103 105 102 98 102 91 86 81 80 95 88 68 36 30 30 19 344 339 8 17 13 8 18 45 42 41 38 37 46 54 76 95 102 100 99 62 55
68 89 93 99 107 109 103 99 88 92 89 95 97 96 100 92 93 163 186 71 51 46 333 351 24 26 16 6 14 28 52 47 44 42 54 61 52 50 83 113 127 105 114 106
79 82 90 88 83 100 101 80 97 96 82 103 105 89 82 50 49 71 52 76 219 240 304 13 18 19 10 4 8 38 43 41 50 52 37 51 57 61 47 84 120 132 140 135
92 89 88 90 90 81 93 101 107 107 110 90 101 129 150 324 28 62 57 23 293 310 251 45 31 2 359 348 11 45 53 57 65 71 67 56 46 42 49 51 103 129 145 119
106 103 105 102 102 96 85 97 109 111 101 96 79 87 71 14 44 315 238 197 217 145 105 14 13 9 356 351 32 50 59 58 65 81 82 74 76 77 83 86 79 75 152 184
114 117 122 123 134 145 123 108 139 130 143 158 177 195 198 223 173 144 244 221 155 178 199 254 312 341 350 5 32 29 21 46 48 149 187 165 172 180 211 222 225 203 197 188
121 132 149 141 133 138 151 182 180 184 203 215 213 215 168 123 352 237 173 164 193 210 225 233 252 280 330 324 349 329 285 272 247 196 204 220 218 242 195 206 224 215 222 227
144 143 135 155 179 195 182 184 196 205 210 230 233 220 223 209 164 220 196 216 218 215 239 247 236 247 249 249 253 255 243 233 230 218 222 227 238 233 245 234 229 220 215 207
165 176 187 205 211 176 132 161 204 186 162 227 251 251 262 264 190 182 208 229 231 233 238 248 234 231 238 244 244 250 249 246 234 233 219 229 228 232 238 238 231 215 208 215
212 164 122 89 63 97 108 128 129 145 148 135 170 290 343 203 227 236 231 253 245 252 257 255 236 232 238 243 242 242 238 235 231 230 226 225 223 225 218 230 231 226 215 203